Weather History for Middletown, OH

Change the Weather History Date:

Monday, May 13, 2013

  Actual Average (KDAY) Record (KDAY)
Temperature  
Mean Temperature 48 °F 60 °F  
Max Temperature 59 °F 71 °F 88 °F (1982)
Min Temperature 37 °F 50 °F 33 °F (1996)
Degree Days  
Heating Degree Days 17 6  
Month to date heating degree days 94  
Since 1 July heating degree days 5545  
Cooling Degree Days 0 2  
Month to date cooling degree days 14  
Year to date cooling degree days 24  
Moisture  
Dew Point 38 °F    
Average Humidity 71    
Maximum Humidity 100    
Minimum Humidity 36    
Precipitation  
Precipitation 0.00 in 0.16 in 1.46 in (1933)
Month to date precipitation 1.95  
Year to date precipitation 14.33  
Snow  
Snow 0.00 in 0.00 in 0.00 in ()
Month to date snowfall 0.0  
Since 1 July snowfall 23.3  
Snow Depth -    
Sea Level Pressure  
Sea Level Pressure 30.16 in    
Wind  
Wind Speed 3 mph (WNW)    
Max Wind Speed 15 mph    
Max Gust Speed 22 mph    
Visibility 10 miles    
Events      
T = Trace of Precipitation, MM = Missing Value Source: NWS Daily Summary

Daily Weather History Graph

Daily Weather History Graph

Search for Another Location

Airport:

Trip Planner

Search our weather history database for the weather conditions in past years. The results will help you decide how hot, cold, wet, or windy it might be!

Date:

Astronomy

May. 13, 2013 Rise Set
Actual Time 6:25 AM EDT 8:43 PM EDT
Civil Twilight 5:54 AM EDT 9:13 PM EDT
Nautical Twilight 5:17 AM EDT 9:50 PM EDT
Astronomical Twilight 4:36 AM EDT 10:32 PM EDT
Moon 9:10 AM EDT (5/13) 11:51 PM EDT (5/13)
Length of Visible Light 15h 18m
Length of Day
14h 18m
Waxing Crescent, 12% of the Moon is Illuminated
May 13
Waxing Crescent
May 18
First Quarter
May 25
Full
May 31
Last Quarter
Jun 8
New

Hourly Weather History & Observations

Time (EDT) Temp. Windchill Dew Point Humidity Pressure Visibility Wind Dir Wind Speed Gust Speed Precip Events Conditions
12:15 AM 41.5 °F - 41.4 °F 99% 30.13 in 10.0 mi Calm Calm - N/A   Overcast
12:35 AM 42.3 °F - 42.3 °F 100% 30.14 in 10.0 mi Calm Calm - N/A   Overcast
12:55 AM 42.1 °F - 42.1 °F 100% 30.14 in 10.0 mi Calm Calm - N/A   Overcast
1:15 AM 42.8 °F - 42.3 °F 98% 30.14 in 10.0 mi Calm Calm - N/A   Overcast
1:35 AM 45.1 °F 42.8 °F 42.3 °F 90% 30.14 in 10.0 mi NNE 4.6 mph - N/A   Overcast
1:55 AM 44.2 °F 42.7 °F 42.4 °F 93% 30.14 in 10.0 mi NNW 3.5 mph - N/A   Overcast
2:15 AM 42.6 °F 39.0 °F 39.6 °F 89% 30.14 in 10.0 mi North 5.8 mph - N/A   Overcast
2:35 AM 42.8 °F 41.1 °F 38.7 °F 85% 30.13 in 10.0 mi NNE 3.5 mph - N/A   Overcast
2:55 AM 43.0 °F - 38.7 °F 85% 30.13 in 10.0 mi Calm Calm - N/A   Overcast
3:15 AM 42.8 °F 41.1 °F 38.1 °F 84% 30.14 in 10.0 mi North 3.5 mph - N/A   Overcast
3:35 AM 42.8 °F - 38.7 °F 85% 30.13 in 10.0 mi Calm Calm - N/A   Overcast
3:55 AM 41.7 °F - 38.5 °F 88% 30.14 in 10.0 mi Calm Calm - N/A   Overcast
4:15 AM 41.4 °F - 38.7 °F 90% 30.13 in 10.0 mi Calm Calm - N/A   Overcast
4:35 AM 40.8 °F - 40.1 °F 97% 30.14 in 10.0 mi Calm Calm - N/A   Overcast
4:55 AM 40.3 °F - 40.1 °F 99% 30.13 in 10.0 mi Calm Calm - N/A   Overcast
5:15 AM 40.3 °F - 39.9 °F 99% 30.14 in 10.0 mi Calm Calm - N/A   Overcast
5:35 AM 40.1 °F - 39.4 °F 97% 30.14 in 10.0 mi Calm Calm - N/A   Overcast
5:55 AM 40.1 °F - 40.1 °F 100% 30.13 in 10.0 mi Calm Calm - N/A   Overcast
6:15 AM 38.8 °F - 38.8 °F 100% 30.13 in 10.0 mi Calm Calm - N/A   Mostly Cloudy
6:35 AM 38.5 °F 36.1 °F 38.5 °F 100% 30.14 in 10.0 mi WNW 3.5 mph - N/A   Scattered Clouds
6:55 AM 37.6 °F - 37.6 °F 100% 30.14 in 10.0 mi Calm Calm - N/A   Clear
7:15 AM 37.6 °F - 37.6 °F 100% 30.15 in 10.0 mi Calm Calm - N/A   Scattered Clouds
7:35 AM 38.5 °F - 38.5 °F 100% 30.15 in 10.0 mi Calm Calm - N/A   Mostly Cloudy
7:55 AM 40.5 °F - 40.5 °F 100% 30.16 in 10.0 mi Calm Calm - N/A   Mostly Cloudy
8:15 AM 45.1 °F 43.7 °F 42.4 °F 90% 30.16 in 10.0 mi SW 3.5 mph - N/A   Scattered Clouds
8:35 AM 47.7 °F - 42.1 °F 81% 30.17 in 10.0 mi SSW 4.6 mph - N/A   Clear
8:55 AM 47.7 °F - 38.7 °F 71% 30.17 in 10.0 mi SSW 5.8 mph - N/A   Clear
9:15 AM 49.6 °F - 39.6 °F 68% 30.18 in 10.0 mi SW 4.6 mph - N/A   Clear
9:35 AM 50.2 °F - 38.8 °F 65% 30.19 in 10.0 mi SW 3.5 mph - N/A   Clear
9:55 AM 52.7 °F - 40.8 °F 64% 30.19 in 10.0 mi Calm Calm - N/A   Clear
10:15 AM 52.7 °F - 41.4 °F 65% 30.19 in 10.0 mi West 4.6 mph - N/A   Clear
10:35 AM 52.7 °F - 39.6 °F 61% 30.19 in 10.0 mi Calm Calm - N/A   Clear
10:55 AM 55.2 °F - 39.7 °F 56% 30.19 in 10.0 mi West 9.2 mph - N/A   Clear
11:15 AM 55.0 °F - 37.6 °F 52% 30.19 in 10.0 mi North 4.6 mph - N/A   Scattered Clouds
11:35 AM 55.4 °F - 38.3 °F 53% 30.20 in 10.0 mi West 10.4 mph - N/A   Mostly Cloudy
11:55 AM 55.4 °F - 34.5 °F 45% 30.20 in 10.0 mi NW 8.1 mph - N/A   Mostly Cloudy
12:15 PM 55.4 °F - 34.0 °F 44% 30.19 in 10.0 mi West 8.1 mph 20.7 mph N/A   Mostly Cloudy
12:35 PM 55.4 °F - 35.2 °F 47% 30.20 in 10.0 mi WNW 8.1 mph - N/A   Mostly Cloudy
12:55 PM 55.4 °F - 34.7 °F 46% 30.19 in 10.0 mi WNW 9.2 mph 17.3 mph N/A   Mostly Cloudy
1:15 PM 57.2 °F - 36.9 °F 47% 30.18 in 10.0 mi NW 10.4 mph - N/A   Mostly Cloudy
1:35 PM 57.7 °F - 34.5 °F 42% 30.18 in 10.0 mi WNW 10.4 mph 18.4 mph N/A   Mostly Cloudy
1:55 PM 56.5 °F - 35.4 °F 45% 30.18 in 10.0 mi NW 12.7 mph 18.4 mph N/A   Mostly Cloudy
2:15 PM 57.7 °F - 36.3 °F 45% 30.18 in 10.0 mi NNW 9.2 mph 18.4 mph N/A   Mostly Cloudy
2:35 PM 57.7 °F - 35.2 °F 43% 30.18 in 10.0 mi WNW 11.5 mph 18.4 mph N/A   Mostly Cloudy
2:55 PM 57.9 °F - 35.6 °F 43% 30.18 in 10.0 mi WNW 11.5 mph 19.6 mph N/A   Mostly Cloudy
3:15 PM 57.7 °F - 34.9 °F 42% 30.18 in 10.0 mi NNW 12.7 mph 19.6 mph N/A   Mostly Cloudy
3:35 PM 59.0 °F - 34.3 °F 40% 30.18 in 10.0 mi West 15.0 mph 19.6 mph N/A   Scattered Clouds
4:35 PM 59.0 °F - 34.5 °F 40% 30.16 in 10.0 mi WNW 9.2 mph 19.6 mph N/A   Scattered Clouds
4:55 PM 58.1 °F - 33.4 °F 39% 30.16 in 10.0 mi NNW 5.8 mph - N/A   Mostly Cloudy
5:15 PM 57.7 °F - 33.3 °F 40% 30.15 in 10.0 mi NNW 9.2 mph - N/A   Mostly Cloudy
5:35 PM 59.0 °F - 32.4 °F 37% 30.15 in 10.0 mi NNW 6.9 mph - N/A   Mostly Cloudy
5:55 PM 59.0 °F - 32.7 °F 37% 30.15 in 10.0 mi WNW 10.4 mph - N/A   Scattered Clouds
6:15 PM 58.8 °F - 33.1 °F 38% 30.15 in 10.0 mi NNW 5.8 mph 9.2 mph N/A   Clear
6:35 PM 59.0 °F - 32.2 °F 36% 30.15 in 10.0 mi WNW 9.2 mph 21.9 mph N/A   Clear
6:55 PM 58.8 °F - 32.4 °F 37% 30.14 in 10.0 mi WNW 11.5 mph 18.4 mph N/A   Clear
7:35 PM 57.7 °F - 33.1 °F 39% 30.14 in 10.0 mi WNW 5.8 mph - N/A   Clear
8:15 PM 55.4 °F - 35.8 °F 48% 30.15 in 10.0 mi WNW 4.6 mph - N/A   Clear
8:35 PM 54.1 °F - 40.1 °F 59% 30.16 in 10.0 mi Calm Calm - N/A   Clear
8:55 PM 50.4 °F - 41.5 °F 72% 30.16 in 10.0 mi Calm Calm - N/A   Clear
9:15 PM 49.1 °F - 39.7 °F 70% 30.17 in 10.0 mi Calm Calm - N/A   Clear
9:35 PM 47.7 °F - 43.7 °F 86% 30.17 in 10.0 mi Calm Calm - N/A   Clear
9:55 PM 45.5 °F - 42.3 °F 88% 30.17 in 10.0 mi Calm Calm - N/A   Clear
10:15 PM 45.9 °F - 43.0 °F 90% 30.17 in 10.0 mi Calm Calm - N/A   Clear
10:35 PM 45.1 °F - 43.0 °F 92% 30.17 in 10.0 mi Calm Calm - N/A   Clear
10:55 PM 42.4 °F - 40.8 °F 94% 30.17 in 10.0 mi Calm Calm - N/A   Clear
11:15 PM 41.4 °F - 40.1 °F 95% 30.17 in 10.0 mi Calm Calm - N/A   Clear
11:35 PM 41.0 °F - 39.7 °F 95% 30.16 in 10.0 mi Calm Calm - N/A   Clear
11:55 PM 40.1 °F - 39.4 °F 97% 30.16 in 10.0 mi Calm Calm - N/A   Clear